Bedford, MA

7:43 AM EDT on September 20, 2017 (GMT -0400)
Hanscom

Weather History for KBED - April, 2014

Change the Weather History Date:

Wednesday, April 9, 2014

  Actual Average Record
Temperature  
Mean Temperature 46 °F -  
Max Temperature 59 °F 55 °F 83 °F (1991)
Min Temperature 33 °F 32 °F 21 °F (1977)
Degree Days  
Heating Degree Days 19    
Moisture  
Dew Point 25 °F    
Average Humidity 49    
Maximum Humidity 96    
Minimum Humidity 20    
Precipitation  
Precipitation 0.00 in - - ()
Sea Level Pressure  
Sea Level Pressure 29.71 in    
Wind  
Wind Speed 10 mph (WNW)    
Max Wind Speed 21 mph    
Max Gust Speed 33 mph    
Visibility 10 miles    
Events      
Averages and records for this station are not official NWS values.
T = Trace of Precipitation, MM = Missing Value Source: NWS Daily Summary

Daily Weather History Graph

Daily Weather History Graph

Search for Another Location

Airport or City:

Trip Planner

Search our weather history database for the weather conditions in past years. The results will help you decide how hot, cold, wet, or windy it might be!

Date:

Astronomy

Apr. 09, 2014 Rise Set
Actual Time 6:14 AM EDT 7:20 PM EDT
Civil Twilight 5:45 AM EDT 7:49 PM EDT
Nautical Twilight 5:10 AM EDT 8:23 PM EDT
Astronomical Twilight 4:34 AM EDT 8:59 PM EDT
Moon 1:59 PM EDT (4/9) 3:07 AM EDT (4/9)
Length of Visible Light 14h 03m
Length of Day
13h 06m
Waxing Gibbous, 71% of the Moon is Illuminated
Apr 9
Waxing Gibbous
Apr 15
Full
Apr 22
Last Quarter
Apr 29
New
May 6
First Quarter

Hourly Weather History & Observations

Time (EDT) Temp. Windchill Dew Point Humidity Pressure Visibility Wind Dir Wind Speed Gust Speed Precip Events Conditions
12:56 AM 43.0 °F 37.2 °F 30.9 °F 62% 29.57 in 10.0 mi West 10.4 mph - N/A   Clear
1:56 AM 42.1 °F 36.6 °F 32.0 °F 67% 29.59 in 10.0 mi West 9.2 mph - N/A   Clear
2:56 AM 41.0 °F 35.8 °F 32.0 °F 70% 29.58 in 10.0 mi West 8.1 mph - N/A   Clear
3:56 AM 39.0 °F 34.8 °F 32.0 °F 76% 29.57 in 10.0 mi West 5.8 mph - N/A   Clear
4:56 AM 36.0 °F 32.1 °F 30.9 °F 82% 29.60 in 10.0 mi SW 4.6 mph - N/A   Clear
5:56 AM 34.0 °F 31.0 °F 30.9 °F 89% 29.61 in 10.0 mi West 3.5 mph - N/A   Clear
6:56 AM 33.1 °F 26.9 °F 32.0 °F 96% 29.65 in 10.0 mi WSW 6.9 mph - N/A   Clear
7:56 AM 42.1 °F 40.2 °F 34.0 °F 73% 29.66 in 10.0 mi WSW 3.5 mph - N/A   Clear
8:56 AM 48.0 °F - 34.0 °F 58% 29.65 in 10.0 mi WNW 9.2 mph - N/A   Clear
9:56 AM 51.1 °F - 34.0 °F 52% 29.65 in 10.0 mi WNW 9.2 mph - N/A   Partly Cloudy
10:56 AM 54.0 °F - 33.1 °F 45% 29.66 in 10.0 mi NNW 13.8 mph 20.7 mph N/A   Mostly Cloudy
11:56 AM 54.0 °F - 30.9 °F 41% 29.65 in 10.0 mi NNW 13.8 mph - N/A   Mostly Cloudy
12:56 PM 54.0 °F - 30.0 °F 40% 29.65 in 10.0 mi WNW 12.7 mph 23.0 mph N/A   Mostly Cloudy
1:56 PM 55.0 °F - 30.0 °F 38% 29.67 in 10.0 mi NW 15.0 mph - N/A   Mostly Cloudy
2:56 PM 59.0 °F - 27.0 °F 29% 29.67 in 10.0 mi NW 18.4 mph 26.5 mph N/A   Scattered Clouds
3:56 PM 55.9 °F - 24.1 °F 29% 29.68 in 10.0 mi NNW 20.7 mph 27.6 mph N/A   Scattered Clouds
4:56 PM 54.0 °F - 23.0 °F 30% 29.70 in 10.0 mi NNW 17.3 mph 28.8 mph N/A   Scattered Clouds
5:56 PM 52.0 °F - 12.0 °F 20% 29.73 in 10.0 mi NW 19.6 mph 33.4 mph N/A   Partly Cloudy
6:56 PM 48.9 °F - 16.0 °F 27% 29.78 in 10.0 mi NW 17.3 mph 23.0 mph N/A   Clear
7:56 PM 45.0 °F 39.7 °F 12.9 °F 27% 29.83 in 10.0 mi NNW 10.4 mph - N/A   Clear
8:56 PM 43.0 °F 36.8 °F 10.0 °F 26% 29.88 in 10.0 mi NW 11.5 mph - N/A   Clear
9:56 PM 39.9 °F 34.5 °F 10.9 °F 31% 29.93 in 10.0 mi WNW 8.1 mph - N/A   Clear
10:56 PM 39.9 °F 33.4 °F 10.0 °F 29% 29.97 in 10.0 mi NW 10.4 mph - N/A   Clear
11:56 PM 37.0 °F 31.6 °F 10.9 °F 34% 30.00 in 10.0 mi WNW 6.9 mph - N/A   Clear